Other Public Products
Issued by NWS Grand Forks, ND

Home | Current Version | Previous Version | Graphics & Text | Print | Product List | Glossary On
Versions: 1 2 3 4 5 6 7 8 9 10 11 12 13 14 15 16 17 18 19 20 21 22 23 24 25 26 27 28 29 30 31 32 33 34 35 36 37 38 39 40 41 42 43 44 45 46 47 48 49 50
000
FPUS83 KFGF 191410
OPUFGF
PRAIRIE TO PINES WEATHER ROUNDUP
NATIONAL WEATHER SERVICE EASTERN NORTH DAKOTA/GRAND FORKS ND
800 AM CST MON FEB 19 2018

 **SATELLITE DATA USED TO AUGMENT SKY COVER AT AUTOMATED STATIONS**
 *****  WEATHER ACROSS EASTERN NORTH DAKOTA  *****

CITY           SKY/WX    TMP DP  RH WIND       PRES   REMARKS
GRAND FORKS    CLOUDY    -1  -7  75 N16       30.25R WCI -21
GRND FORKS AFB FAIR      -2  -9  70 N13       30.25R WCI -20
GRND FORKS NWS   N/A     -1  -5  83 N9        30.22R WCI -16
BUXTON           N/A      1  -1  93 N13         N/A  WCI -17
DEVILS LAKE    FAIR      -9 -14  78 N12       30.22R WCI -28
FARGO          CLOUDY     4  -2  76 N17       30.18R WCI -16
WAHPETON ARPT  CLOUDY    10   1  67 N16       30.12R WCI  -7
$$

 *****  WEATHER ACROSS CENTRAL AND WESTERN NORTH DAKOTA  *****

CITY           SKY/WX    TMP DP  RH WIND       PRES   REMARKS
JAMESTOWN      FAIR       2  -5  72 N16       30.16R WCI -18
BISMARCK       CLOUDY     1  -6  72 NE9       30.19R WCI -14
MINOT          FAIR      -9 -16  71 SW6       30.19R WCI -22
MINOT AFB      FAIR     -17 -22  74 CALM      30.19R
GARRISON         N/A     -9 -17  68 N5        30.18R WCI -20
WILLISTON      FAIR     -14 -21  71 CALM      30.19R
DICKINSON      CLOUDY    -1 -10  65 N5        30.09R WCI -11
HETTINGER      CLOUDY    -1 -10  65 N9        30.08R WCI -16
$$

 *****  OTHER OBSERVATIONS NORTHEAST NORTH DAKOTA  *****

CITY           SKY/WX    TMP DP  RH WIND       PRES   REMARKS
WALHALLA       FAIR      -8 -13  77 NW5       30.30R WCI -19
LANGDON        NOT AVBL
CAVALIER         N/A     -6 -11  77 N6        30.30R WCI -18
GRAFTON        NOT AVBL
CANDO          FAIR      -9 -15  77 N10       30.24R WCI -28
FORT TOTTEN      N/A     -8 -15  72 N3        29.95S
ROLLA          FAIR     -13 -20  70 N5        30.20R WCI -25
RUGBY          NOT AVBL
 ***** THE ABOVE OBSERVATIONS ARE NON NWS ARE NOT QUALITY
        CONTROLLED AND MAY MIS-REPORT RAIN FOR SNOW...
$$

 *****  OTHER OBSERVATIONS SOUTHEAST NORTH DAKOTA *****

CITY           SKY/WX    TMP DP  RH WIND       PRES   REMARKS
COOPERSTOWN    FAIR       0  -8  71 N13       30.19R WCI -18
VALLEY CITY    NOT AVBL
OAKES            N/A      5  -2  72 N15       30.13R WCI -13
GWINNER          N/A      5   0  78 N17       30.13R WCI -14
SHEYENNE NWR     N/A      5  -3  69 N12       29.95S WCI -11
BUFFALO          N/A      3  -5  70 SE15        N/A  WCI -16
WYNDMERE       NOT AVBL
 ***** THE ABOVE OBSERVATIONS ARE NON NWS ARE NOT QUALITY
       CONTROLLED AND MAY MIS-REPORT RAIN FOR SNOW...
$$

  *****  WEATHER ACROSS NORTHERN MINNESOTA  *****

CITY           SKY/WX    TMP DP  RH WIND       PRES   REMARKS
FLAG ISLAND    FAIR      -8 -13  77 N6        30.22R WCI -21
WARROAD        FAIR      -2  -9  71 N7        30.21F WCI -16
ROSEAU         NOT AVBL
HALLOCK        FAIR      -8 -13  77 NW7       30.28R WCI -22
THF RVR FALLS  FAIR      -1  -7  75 NE12      30.20S WCI -18
HALSTAD        NOT AVBL
FOSSTON        FAIR       1  -4  78 N9        30.13F WCI -14
BAUDETTE       FAIR      -3  -8  79 N7        30.18R WCI -16
WASKISH        FAIR       1  -2  85 N5        30.16R WCI  -8
CROOKSTON      FAIR       1  -6  71 N9        30.22R WCI -14
$$
  *****  WEATHER ACROSS CENTRAL AND WEST MINNESOTA  *****

CITY           SKY/WX    TMP DP  RH WIND       PRES   REMARKS
BEMIDJI        FAIR       5  -2  72 NE10      30.11R WCI -10
PARK RAPIDS    CLOUDY     5  -1  76 NE10G20   30.06R WCI -10
WADENA         FLURRIES   7   1  78 N12       30.06R WCI  -9
DETROIT LAKES  FAIR       9   1  72 NE7       30.09R WCI  -3
MOORHEAD       FAIR       3  -2  78 N15       30.17R WCI -15
FERGUS FALLS   FLURRIES   9   1  72 N8        30.09R WCI  -4
ELBOW LAKE     LGT SNOW  10   6  82 NE14      30.05R WCI  -6
MORRIS MN      LGT SNOW  12   7  79 N20       30.01S WCI  -6
STAPLES        LGT SNOW   7   1  78 N8        30.05R WCI  -6
WHEATON        LGT SNOW   9   3  78 N13G22    30.10R WCI  -7
$$
  *****  WEATHER ELSEWHERE ACROSS MINNESOTA  *****

CITY           SKY/WX    TMP DP  RH WIND       PRES   REMARKS
DULUTH         LGT SNOW  10   2  69 N13       30.01S WCI  -5
INTRNTL FALLS  FAIR       2  -2  83 N6        30.17R WCI  -9
ELY            FAIR       1  -4  78 NE6       30.09R WCI -10
CLOQUET        LGT SNOW   9   1  72 N10       30.02R WCI  -6
BRAINERD       LGT SNOW  10   2  69 N12       30.05R WCI  -5
HIBBING        CLOUDY     3  -3  76 NE8       30.09R WCI -10
ALEXANDRIA     LGT SNOW  10   5  80 NE16      30.01R WCI  -7
SAINT CLOUD    LGT SNOW  12   8  84 N14       29.98S FOG     WCI  -3
MINNEAPOLIS    CLOUDY    20  15  81 N20G28    29.91R WCI   4
$$

  *****  WEATHER ACROSS SOUTH DAKOTA  *****

CITY           SKY/WX    TMP DP  RH WIND       PRES   REMARKS
SIOUX FALLS    FRZ DRZL  15  11  83 N20G28    29.88R WCI  -2
BROOKINGS      LGT SNOW  10   5  80 N22G32    29.90R WCI -10
WATERTOWN      LGT SNOW   8   4  83 N23G33    29.92F FOG     WCI -13
HURON          CLOUDY     9   4  80 N26G32    30.01R WCI -13
SISSETON         N/A      8   4  83 N21       30.07S WCI -12
ABERDEEN       LGT SNOW   7   2  80 N17       30.09F WCI -12
MITCHELL       CLOUDY    12   7  80 N22G29    29.98R WCI  -7
PIERRE         FLURRIES   6   3  87 N15       30.05F WCI -12
MOBRIDGE       FAIR       6   0  76 N10       30.07R WCI  -9
RAPID CITY     LGT SNOW   1  -3  83 N16       30.00R FOG     WCI -19
$$

  *****  SOME WEATHER IN NEARBY STATES *****

CITY           SKY/WX    TMP DP  RH WIND       PRES   REMARKS
GLASGOW MT     CLOUDY    -6 -11  79 NW6       30.14S WCI -19
GREAT FALLS MT LGT SNOW  -5 -10  79 NW5       30.02R WCI -16
CHEYENNE WY    CLOUDY     3   1  91 NE3       29.63S
SCOTTSBLUFF NE FLURRIES   6   0  76 NE8       29.84R WCI  -7
OMAHA NE       FRZ DRZL  27  24  89 N23G31    29.75R FOG     WCI  12
DES MOINES IA  LGT RAIN  46  44  93 CALM      29.66R VSB 1
DAVENPORT IA   LGT RAIN  43  41  93 SE7       29.77S FOG
CHICAGO IL     LGT RAIN  39  36  89 NE9       29.78F FOG
EAU CLAIRE WI  CLOUDY    28  22  78 N9        29.87R WCI  19
LA CROSSE WI   CLOUDY    33  30  88 W6        29.80R
$$

  *****  SOME NATIONAL WEATHER *****

CITY           SKY/WX    TMP DP  RH WIND       PRES   REMARKS
LA GUARDIA NY  FAIR      43  33  68 S9        30.52S
RALEIGH NC     DRIZZLE   41  41 100 NE5       30.48S FOG
ATLANTA GA     DRZL/FOG  60  60 100 E9        30.34R VSB 1/2
NEW ORLEANS LA FAIR      71  66  84 SE6       30.14R
OKLAHOMA CITY  CLOUDY    64  59  83 S21G31    29.74R
ALBUQUERQUE NM CLOUDY    44  37  76 S10       29.73F
SALT LAKE CITY SNOW      28  25  88 NW16      29.45S VSB 1/2 WCI  16
LOS ANGELES CA FAIR      50  22  33 NW9       29.87R
BOISE ID       CLOUDY    22  18  85 NW5       29.71R WCI  16
SEATTLE WA     CLOUDY    30  12  47 N14       30.11R WCI  19
$$

*** WEATHER ACROSS MANITOBA...SASKATCHEWAN AND ONTARIO ***
                ***ONTARIO***

CITY           SKY/WX    TMP DP  RH WIND       PRES   REMARKS
GERALDTON      MOCLDY    -4  -8  84 N7        30.17R WCI -18
THUNDER BAY    CLOUDY     7  -2  66 N7        30.16R WCI  -5
SIOUX LOOKOUT  MOCLDY   -11 -17  77 E3        30.21R
TORONTO        PTSUNNY   36  28  75 E5        30.06F
BIG TROUT LK   CLEAR    -42 -49  66 SW3       30.32R
PICKLE LAKE    MOCLDY   -24 -29  76 N2        30.24R
DRYDEN         MOCLDY   -11 -17  77 NE7       30.19R WCI -26
KENORA         NOT AVBL
$$
                *** MANITOBA***

CITY           SKY/WX    TMP DP  RH WIND       PRES   REMARKS
BRANDON        MOCLDY   -22 -29  69 N6        30.25F WCI -38
DAUPHIN        CLEAR    -27 -33  75 W3        30.29R
ISLAND LAKE    CLEAR    -44 -51  66 VRB2      30.31R FOG
PILOT MOUND      N/A    -13 -17  84 NW2         N/A
THE PAS        PTCLDY   -26 -31  75 S5        30.17F WCI -40
THOMPSON       PTCLDY   -35 -42  67 S5        30.18F WCI -50
WINNIPEG       NOT AVBL
LYNN LAKE      PTCLDY   -27 -33  75 SW8       29.98F WCI -48
CHURCHILL      CLEAR    -33 -42  61 W9        30.16R WCI -56
GILLAM         PTCLDY   -33 -42  61 SW8       30.24S WCI -54
$$
                ***SASKATCHEWAN***

CITY           SKY/WX    TMP DP  RH WIND       PRES   REMARKS
ESTEVAN        FOG      -18 -24  76 W6        30.17R VSB 1   WCI -33
KINDERSLEY     MOCLDY   -17 -22  76 S6        30.09F WCI -31
LLOYDMINSTER   FLURRIES  -4  -8  84 SW13      30.00F WCI -23
PRINCE ALBERT  PTCLDY   -35 -42  67 CALM      30.14R
REGINA         PTCLDY   -17 -20  83 CALM      30.17R FOG
YORKTON        PTCLDY   -11 -15  84 SW3       30.18R



USA.gov is the U.S. government's official web portal to all federal, state and local government web resources and services.